ALK110 VOBL-VCBI

Flight info

Callsign ALK110
Flight time N/A
Altitude 33000
Route AKTIM8A AKTIM V45 TTR G325 IDIBI IDIBI1A
Aircraft A21N/M-SDE3FGHIRWY/LB1

Departure

Time 2026-05-06 15:18
Airport Kempegowda International Airport Bengaluru (VOBL)

Arrival

Time N/A
Airport Bandaranaike International Colombo Airport (VCBI)
Time Latitude Longitude Altitude Speed Heading
2026-05-06 14:32 13.20366 77.69526 2988 ft 0 kts
2026-05-06 15:03 13.20357 77.69526 2988 ft 2 kts
2026-05-06 15:03 13.20347 77.69526 2987 ft 1 kts
2026-05-06 15:03 13.20332 77.69527 2987 ft 2 kts 342°
2026-05-06 15:04 13.20318 77.69533 2986 ft 2 kts 328°
2026-05-06 15:04 13.20306 77.69543 2985 ft 2 kts 313°
2026-05-06 15:04 13.20297 77.69556 2984 ft 2 kts 296°
2026-05-06 15:04 13.20292 77.69570 2983 ft 2 kts 281°
2026-05-06 15:05 13.20290 77.69580 2983 ft 1 kts 271°
2026-05-06 15:05 13.20290 77.69586 2983 ft 0 kts 269°
2026-05-06 15:10 13.20290 77.69583 2983 ft 1 kts 269°
2026-05-06 15:11 13.20290 77.69559 2984 ft 4 kts 269°
2026-05-06 15:11 13.20290 77.69523 2985 ft 5 kts 270°
2026-05-06 15:11 13.20290 77.69481 2987 ft 6 kts 270°
2026-05-06 15:11 13.20290 77.69433 2989 ft 6 kts 270°
2026-05-06 15:12 13.20291 77.69383 2991 ft 6 kts 279°
2026-05-06 15:12 13.20313 77.69346 2993 ft 5 kts 323°
2026-05-06 15:12 13.20349 77.69334 2995 ft 5 kts 351°
2026-05-06 15:12 13.20385 77.69331 2996 ft 5 kts 356°
2026-05-06 15:13 13.20421 77.69328 2998 ft 5 kts 356°
2026-05-06 15:13 13.20457 77.69328 2999 ft 5 kts
2026-05-06 15:13 13.20494 77.69326 3001 ft 5 kts 346°
2026-05-06 15:13 13.20523 77.69303 3002 ft 5 kts 303°
2026-05-06 15:14 13.20534 77.69258 3003 ft 7 kts 275°
2026-05-06 15:14 13.20537 77.69201 3004 ft 8 kts 270°
2026-05-06 15:14 13.20538 77.69132 3005 ft 10 kts 270°
2026-05-06 15:14 13.20538 77.69053 3007 ft 11 kts 271°
2026-05-06 15:15 13.20539 77.68963 3009 ft 13 kts 271°
2026-05-06 15:15 13.20542 77.68864 3009 ft 15 kts 271°
2026-05-06 15:15 13.20542 77.68765 3011 ft 13 kts 270°
2026-05-06 15:15 13.20547 77.68667 3011 ft 13 kts 288°
2026-05-06 15:16 13.20611 77.68618 3011 ft 11 kts 355°
2026-05-06 15:16 13.20685 77.68617 3012 ft 9 kts 12°
2026-05-06 15:16 13.20713 77.68658 3012 ft 0 kts 81°
2026-05-06 15:16 13.20713 77.68663 3012 ft 1 kts 84°
2026-05-06 15:17 13.20714 77.68665 3012 ft 0 kts 84°
2026-05-06 15:17 13.20714 77.68666 3012 ft 1 kts 84°
2026-05-06 15:17 13.20715 77.68717 3011 ft 15 kts 90°
2026-05-06 15:17 13.20711 77.69004 3010 ft 73 kts 90°
2026-05-06 15:18 13.20701 77.69751 2997 ft 135 kts 90°
2026-05-06 15:18 13.20694 77.70911 2971 ft 186 kts 91°
2026-05-06 15:18 13.20683 77.72289 3406 ft 196 kts 89°
2026-05-06 15:18 13.20953 77.73622 4184 ft 194 kts 66°
2026-05-06 15:19 13.21693 77.74773 4898 ft 196 kts 51°
2026-05-06 15:19 13.22543 77.75912 5351 ft 211 kts 57°
2026-05-06 15:19 13.23360 77.77228 5689 ft 228 kts 59°
2026-05-06 15:19 13.24207 77.78683 5913 ft 249 kts 60°
2026-05-06 15:20 13.25108 77.80286 6239 ft 266 kts 60°
2026-05-06 15:20 13.26029 77.81956 6735 ft 275 kts 63°
2026-05-06 15:20 13.26702 77.83794 7393 ft 278 kts 78°
2026-05-06 15:20 13.26881 77.85789 8089 ft 281 kts 89°
2026-05-06 15:21 13.26866 77.87777 8748 ft 284 kts 90°
2026-05-06 15:21 13.26758 77.89829 9393 ft 289 kts 101°
2026-05-06 15:21 13.25888 77.91682 9980 ft 297 kts 132°
2026-05-06 15:21 13.24174 77.92862 10478 ft 308 kts 160°
2026-05-06 15:22 13.22010 77.93164 10779 ft 325 kts 180°
2026-05-06 15:22 13.19697 77.93126 11081 ft 341 kts 180°
2026-05-06 15:22 13.17246 77.93093 11370 ft 358 kts 180°
2026-05-06 15:22 13.14708 77.93085 11647 ft 373 kts 179°
2026-05-06 15:23 13.12085 77.93099 12047 ft 384 kts 179°
2026-05-06 15:23 13.09403 77.93125 12670 ft 388 kts 179°
2026-05-06 15:23 13.06682 77.93158 13314 ft 391 kts 179°
2026-05-06 15:23 13.03910 77.93197 13923 ft 394 kts 179°
2026-05-06 15:24 13.01172 77.93238 14498 ft 398 kts 178°
2026-05-06 15:24 12.98398 77.93282 15072 ft 402 kts 178°
2026-05-06 15:24 12.95615 77.93326 15635 ft 405 kts 178°
2026-05-06 15:24 12.92792 77.93372 16189 ft 408 kts 178°
2026-05-06 15:25 12.89961 77.93419 16737 ft 412 kts 178°
2026-05-06 15:25 12.87079 77.93467 17280 ft 415 kts 178°
2026-05-06 15:25 12.84188 77.93514 17811 ft 418 kts 178°
2026-05-06 15:25 12.81281 77.93563 18334 ft 421 kts 178°
2026-05-06 15:26 12.78342 77.93611 18852 ft 424 kts 178°
2026-05-06 15:26 12.75397 77.93660 19359 ft 427 kts 178°
2026-05-06 15:26 12.72387 77.93710 19864 ft 430 kts 178°
2026-05-06 15:26 12.69402 77.93758 20355 ft 433 kts 178°
2026-05-06 15:27 12.66397 77.93808 20838 ft 436 kts 178°
2026-05-06 15:27 12.63379 77.93858 21306 ft 439 kts 178°
2026-05-06 15:27 12.60285 77.93909 21771 ft 441 kts 177°
2026-05-06 15:27 12.57234 77.93959 22216 ft 444 kts 177°
2026-05-06 15:28 12.54102 77.94010 22660 ft 447 kts 177°
2026-05-06 15:28 12.50994 77.94062 23089 ft 449 kts 177°
2026-05-06 15:28 12.47874 77.94113 23500 ft 452 kts 177°
2026-05-06 15:28 12.44698 77.94165 23903 ft 454 kts 177°
2026-05-06 15:29 12.41542 77.94217 24290 ft 457 kts 177°
2026-05-06 15:29 12.38391 77.94269 24666 ft 459 kts 177°
2026-05-06 15:29 12.35178 77.94322 25037 ft 461 kts 177°
2026-05-06 15:29 12.31955 77.94375 25393 ft 463 kts 177°
2026-05-06 15:30 12.28768 77.94427 25726 ft 465 kts 177°
2026-05-06 15:30 12.25516 77.94480 26052 ft 467 kts 177°
2026-05-06 15:30 12.22292 77.94534 26370 ft 469 kts 177°
2026-05-06 15:30 12.19005 77.94588 26686 ft 471 kts 177°
2026-05-06 15:31 12.15764 77.94641 27058 ft 471 kts 177°
2026-05-06 15:31 12.12487 77.94694 27499 ft 469 kts 177°
2026-05-06 15:31 12.09238 77.94748 27933 ft 467 kts 176°
2026-05-06 15:32 12.02762 77.94855 28731 ft 465 kts 176°
2026-05-06 15:32 11.99551 77.94908 29114 ft 464 kts 176°
2026-05-06 15:32 11.96365 77.94961 29487 ft 462 kts 176°
2026-05-06 15:32 11.93143 77.95016 29856 ft 461 kts 176°
2026-05-06 15:33 11.89935 77.95069 30214 ft 460 kts 176°
2026-05-06 15:33 11.86754 77.95122 30556 ft 459 kts 176°
2026-05-06 15:33 11.83545 77.95177 30896 ft 458 kts 176°
2026-05-06 15:33 11.80400 77.95231 31224 ft 457 kts 176°
2026-05-06 15:34 11.77223 77.95284 31509 ft 457 kts 176°
2026-05-06 15:34 11.74058 77.95337 31745 ft 458 kts 176°
2026-05-06 15:34 11.70875 77.95509 31961 ft 457 kts 171°
2026-05-06 15:34 11.67770 77.96032 32171 ft 455 kts 164°
2026-05-06 15:35 11.64749 77.96918 32381 ft 453 kts 157°
2026-05-06 15:35 11.61877 77.98144 32581 ft 450 kts 150°
2026-05-06 15:35 11.59151 77.99705 32777 ft 448 kts 144°
2026-05-06 15:35 11.56624 78.01568 32896 ft 447 kts 138°
2026-05-06 15:36 11.51930 78.05720 32885 ft 446 kts 136°
2026-05-06 15:36 11.47312 78.09886 32875 ft 446 kts 136°
2026-05-06 15:37 11.42626 78.14086 32871 ft 446 kts 136°
2026-05-06 15:37 11.37973 78.18240 32869 ft 447 kts 136°
2026-05-06 15:38 11.33318 78.22390 32868 ft 446 kts 136°
2026-05-06 15:38 11.28625 78.26569 32868 ft 446 kts 136°
2026-05-06 15:39 11.23963 78.30719 32868 ft 446 kts 136°
2026-05-06 15:39 11.19316 78.34854 32868 ft 447 kts 136°
2026-05-06 15:40 11.14643 78.39011 32868 ft 446 kts 136°
2026-05-06 15:40 11.09955 78.43178 32868 ft 446 kts 136°
2026-05-06 15:41 11.05290 78.47324 32868 ft 446 kts 136°
2026-05-06 15:41 11.00637 78.51455 32869 ft 446 kts 136°
2026-05-06 15:42 10.95956 78.55609 32869 ft 445 kts 135°
2026-05-06 15:42 10.91305 78.59737 32869 ft 445 kts 135°
2026-05-06 15:43 10.86636 78.63879 32868 ft 444 kts 135°
2026-05-06 15:43 10.81928 78.67906 32869 ft 446 kts 139°
2026-05-06 15:44 10.76746 78.71390 32868 ft 450 kts 147°
2026-05-06 15:44 10.71092 78.74174 32868 ft 454 kts 154°
2026-05-06 15:45 10.65091 78.76247 32869 ft 457 kts 159°
2026-05-06 15:45 10.59045 78.78127 32868 ft 457 kts 159°
2026-05-06 15:46 10.52996 78.80012 32868 ft 456 kts 159°
2026-05-06 15:46 10.46922 78.81909 32868 ft 457 kts 159°
2026-05-06 15:47 10.40886 78.83796 32868 ft 456 kts 159°
2026-05-06 15:47 10.34825 78.85692 32868 ft 456 kts 159°
2026-05-06 15:48 10.28758 78.87588 32868 ft 456 kts 159°
2026-05-06 15:48 10.22721 78.89475 32868 ft 457 kts 159°
2026-05-06 15:49 10.16639 78.91375 32868 ft 457 kts 159°
2026-05-06 15:49 10.10616 78.93256 32868 ft 457 kts 159°
2026-05-06 15:50 10.04552 78.95149 32868 ft 457 kts 159°
2026-05-06 15:50 9.98514 78.97032 32868 ft 456 kts 159°
2026-05-06 15:51 9.92431 78.98930 32869 ft 456 kts 159°
2026-05-06 15:51 9.86377 79.00818 32869 ft 456 kts 159°
2026-05-06 15:52 9.80341 79.02699 32869 ft 455 kts 159°
2026-05-06 15:52 9.74321 79.04575 32869 ft 454 kts 159°
2026-05-06 15:53 9.68304 79.06449 32869 ft 454 kts 159°
2026-05-06 15:53 9.62304 79.08318 32868 ft 454 kts 159°
2026-05-06 15:54 9.56309 79.10184 32869 ft 453 kts 159°
2026-05-06 15:54 9.50278 79.12061 32869 ft 453 kts 159°
2026-05-06 15:55 9.44317 79.13949 32869 ft 452 kts 159°
2026-05-06 15:55 9.38332 79.15870 32868 ft 452 kts 159°
2026-05-06 15:56 9.32336 79.17793 32869 ft 451 kts 159°
2026-05-06 15:56 9.26377 79.19701 32868 ft 451 kts 159°
2026-05-06 15:57 9.20384 79.21619 32869 ft 451 kts 159°
2026-05-06 15:57 9.14448 79.23517 32869 ft 451 kts 159°
2026-05-06 15:58 9.08457 79.25435 32869 ft 450 kts 159°
2026-05-06 15:58 9.02493 79.27346 32868 ft 450 kts 160°
2026-05-06 15:59 8.96556 79.29247 32870 ft 448 kts 161°
2026-05-06 15:59 8.90657 79.31129 32858 ft 446 kts 161°
2026-05-06 16:00 8.87697 79.32072 32503 ft 447 kts 161°
2026-05-06 16:00 8.84748 79.33014 31691 ft 452 kts 161°
2026-05-06 16:00 8.81738 79.33977 30714 ft 457 kts 161°
2026-05-06 16:00 8.78728 79.34961 29788 ft 460 kts 160°
2026-05-06 16:01 8.75770 79.36123 28909 ft 461 kts 156°
2026-05-06 16:01 8.72858 79.37485 27930 ft 455 kts 153°
2026-05-06 16:01 8.70136 79.38970 27076 ft 445 kts 150°
2026-05-06 16:01 8.67502 79.40605 26355 ft 446 kts 148°
2026-05-06 16:02 8.64922 79.42284 25688 ft 445 kts 148°
2026-05-06 16:02 8.62335 79.43975 25014 ft 443 kts 148°
2026-05-06 16:02 8.59763 79.45657 24454 ft 438 kts 148°
2026-05-06 16:02 8.57232 79.47308 24044 ft 433 kts 148°
2026-05-06 16:03 8.54696 79.48954 23640 ft 432 kts 148°
2026-05-06 16:03 8.52190 79.50581 23241 ft 430 kts 148°
2026-05-06 16:03 8.49659 79.52168 22837 ft 428 kts 151°
2026-05-06 16:03 8.47047 79.53539 22438 ft 425 kts 156°
2026-05-06 16:04 8.44333 79.54684 22035 ft 422 kts 161°
2026-05-06 16:04 8.41567 79.55623 21636 ft 420 kts 163°
2026-05-06 16:04 8.38785 79.56512 21233 ft 418 kts 163°
2026-05-06 16:04 8.36035 79.57382 20907 ft 417 kts 163°
2026-05-06 16:05 8.33285 79.58253 20505 ft 415 kts 163°
2026-05-06 16:05 8.30541 79.59125 20027 ft 412 kts 163°
2026-05-06 16:05 8.27843 79.59984 19522 ft 409 kts 163°
2026-05-06 16:05 8.25129 79.60849 18997 ft 406 kts 163°
2026-05-06 16:06 8.22446 79.61705 18466 ft 404 kts 163°
2026-05-06 16:06 8.19783 79.62553 17934 ft 401 kts 163°
2026-05-06 16:06 8.17141 79.63396 17403 ft 399 kts 163°
2026-05-06 16:06 8.14541 79.64224 16881 ft 397 kts 163°
2026-05-06 16:07 8.11890 79.65070 16344 ft 395 kts 164°
2026-05-06 16:07 8.09276 79.65903 15815 ft 393 kts 164°
2026-05-06 16:07 8.06715 79.66718 15296 ft 391 kts 164°
2026-05-06 16:07 8.04123 79.67545 14772 ft 389 kts 163°
2026-05-06 16:08 8.01601 79.68538 14241 ft 388 kts 155°
2026-05-06 16:08 7.99287 79.69901 13720 ft 387 kts 146°
2026-05-06 16:08 7.97178 79.71595 13200 ft 386 kts 140°
2026-05-06 16:08 7.95191 79.73358 12680 ft 385 kts 139°
2026-05-06 16:09 7.93202 79.75148 12163 ft 383 kts 139°
2026-05-06 16:09 7.91232 79.76915 11652 ft 380 kts 139°
2026-05-06 16:09 7.89243 79.78687 11129 ft 379 kts 139°
2026-05-06 16:09 7.87287 79.80423 10743 ft 372 kts 139°
2026-05-06 16:10 7.85347 79.82141 10545 ft 359 kts 139°
2026-05-06 16:10 7.83490 79.83783 10386 ft 346 kts 139°